Home   Weather   Xi'an   Past weeks
Flag for China

Past Weather in Xi'an, Shaanxi, China — Yesterday and Last 2 Weeks

Now
46 °F

Fog.


Feels Like: 46 °F
Forecast: 71 / 52 °F
Wind: 1 mph from West

Location: Xian/Xianyang

Current Time: Oct 19, 2019 at 12:37:17 am

Latest Report: Oct 19, 2019 at 12:00 am


Visibility: 2 mi

Pressure: 30.12 "Hg

Humidity: 100%

Dew Point: 46 °F

Location of Xi'anLocation

Past Weather in Xi'an — Graph

°F

Xi'an Temperature Yesterday

Maximum temperature yesterday: 68 °F (at 4:00 pm)
Minimum temperature yesterday: 41 °F (at 5:00 am)
Average temperature yesterday: 53 °F

High & Low Weather Summary for the Past Weeks

 TemperatureHumidityPressure
High72 °F (Oct 12, 3:00 pm)100% (Oct 3, 11:00 pm)30.45 "Hg (Oct 3, 11:00 pm)
Low41 °F (Oct 17, 5:00 am)56% (Oct 17, 2:00 pm)29.98 "Hg (Oct 10, 5:00 pm)
Average57 °F91%30.20 "Hg
* Reported Oct 3 11:00 pm — Oct 18 11:00 pm, Xi'an. Weather by CustomWeather, © 2019

Note: Actual official high and low records may vary slightly from our data, if they occured in-between our weather recording intervals... More about our weather records

Advertising

Xi'an Weather History for the Previous 24 Hours

Scroll right to see more
 ConditionsComfort  
Time TempWeatherWind HumidityBarometerVisibility
11:00 pm
Fri, Oct 18
48 °FFog.1 mph100%30.12 "Hg2 mi
10:00 pm48 °FFog.1 mph100%30.12 "Hg2 mi
9:00 pm50 °FFog.1 mph100%30.12 "Hg3 mi
8:00 pm52 °FFog.1 mph94%30.09 "Hg3 mi
7:00 pm55 °FClear.1 mph88%30.09 "Hg4 mi
6:00 pm63 °FClear.3 mph68%30.07 "Hg4 mi
5:00 pm66 °FClear.6 mph60%30.09 "Hg4 mi
4:00 pm68 °FClear.6 mph56%30.09 "Hg4 mi
3:00 pm66 °FClear.3 mph60%30.09 "Hg4 mi
2:00 pm66 °FClear.6 mph64%30.12 "Hg4 mi
1:00 pm66 °FClear.8 mph60%30.15 "Hg4 mi
12:00 pm64 °FClear.8 mph68%30.18 "Hg4 mi
11:00 am59 °FFog.8 mph72%30.21 "Hg3 mi
10:00 am57 °FFog.8 mph82%30.21 "Hg3 mi
9:00 am52 °FClear.3 mph100%30.21 "Hg4 mi
8:00 am46 °FFog.1 mph100%30.21 "Hg3 mi
7:00 am41 °FFog.1 mph100%30.18 "Hg2 mi
6:00 am43 °FFog.1 mph93%30.18 "Hg3 mi
5:00 am41 °FFog.1 mph100%30.18 "Hg3 mi
4:00 am43 °FFog.1 mph100%30.18 "Hg3 mi
3:00 am45 °FFog.No wind100%30.18 "Hg3 mi
2:00 am46 °FFog.1 mph100%30.18 "Hg3 mi
1:00 am46 °FFog.1 mph100%30.21 "Hg3 mi
12:00 am50 °FFog.1 mph94%30.21 "Hg3 mi
Weather by CustomWeather, © 2019

See weather overview